Tracking 22454 objects as of 5-Mar-2021
HD Live streaming from Space Station
objects crossing your sky now

DELTA 1 DEB

Track DELTA 1 DEB now!
10-day predictions


NORAD ID: 21386
Int'l Code: 1975-052DG
Perigee: 1,026.3 km
Apogee: 1,310.0 km
Inclination: 99.5 °
Period: 108.6 minutes
Semi major axis: 7539 km
RCS: 0.014 m2 (small)
Launch date: June 12, 1975
Source: United States (US)
Launch site: AIR FORCE WESTERN TEST RANGE (AFWTR)

Note: This is SATELLITE DEBRIS
aabbcc
Your satellite tracking list
Your tracking list is empty




NASA's NSSDC Master Catalog

Two Line Element Set (TLE):
1 21386U 75052DG  21063.69588291  .00000266  00000-0  62744-3 0  9999
2 21386  99.5461 226.7113 0188187 164.5524 262.8583 13.26225711437185
Source of the keplerian elements: AFSPC